Temperature
20 20 20 20 17 16 18 18 18 18 18 18 18 18 18 17 17 17 17 17 17 17 17 17 17 17 18 18 18 18 17 17 17 17 17 17 17 17 17 17 17 17 17 17 17 17 17 17 17
20 20 20 19 16 17 18 18 18 18 18 18 18 18 18 17 17 17 17 17 17 17 17 17 17 17 17 17 17 17 17 17 17 17 17 17 17 17 17 17 17 17 17 17 17 17 17 17 17
20 20 20 16 17 17 18 18 18 18 19 19 18 18 17 17 17 17 17 17 17 17 17 17 17 17 17 17 17 17 17 17 17 17 17 17 17 17 16 16 17 16 16 16 16 17 17 17 17
20 20 19 16 18 18 18 18 18 18 19 18 18 17 17 17 17 17 17 17 17 17 17 17 17 17 17 17 17 17 17 17 17 16 16 16 16 16 16 16 16 16 16 16 16 16 17 17 17
20 20 16 17 18 18 18 18 19 18 18 18 18 17 17 17 17 17 17 17 17 17 17 17 17 17 17 17 17 17 17 17 17 16 16 16 16 16 16 16 16 16 16 16 16 16 16 17 17
20 17 16 17 18 18 18 18 19 18 18 18 18 17 17 17 17 17 17 17 17 17 17 17 17 17 17 17 17 17 16 16 16 16 16 16 16 16 16 16 16 16 16 16 16 16 16 17 17
19 15 16 17 17 18 19 19 18 18 18 18 18 16 17 17 17 17 17 17 17 17 17 17 17 16 16 16 16 16 16 16 16 16 16 16 16 16 16 16 16 16 16 16 16 16 17 17 17
20 16 17 17 17 18 19 19 19 18 18 18 18 17 17 17 17 17 17 17 17 17 17 17 17 17 17 17 16 16 16 16 16 16 16 16 16 16 16 16 16 16 16 16 16 16 16 16 17
20 16 16 17 18 18 19 19 19 19 18 18 18 18 17 17 17 17 17 17 17 17 17 17 17 17 17 17 17 16 16 16 16 16 16 16 16 16 16 16 16 16 16 16 16 16 16 16 17
19 16 18 18 18 18 19 19 18 18 18 17 17 18 17 17 17 17 17 17 17 17 17 17 17 17 17 17 16 16 16 16 16 16 16 16 16 16 16 16 16 16 16 16 16 16 16 16 16
18 17 18 19 19 19 19 18 18 18 17 18 18 17 17 17 17 17 17 17 17 17 17 17 16 16 16 16 16 16 16 16 16 16 16 16 16 16 16 16 16 16 16 16 16 16 16 16 16
18 18 19 19 20 19 19 19 18 18 18 19 19 18 18 17 17 17 17 17 17 17 17 17 17 16 16 16 16 16 16 16 16 16 16 16 16 16 16 16 16 16 16 16 16 16 16 16 16
18 18 19 19 19 19 19 18 18 18 18 19 18 18 18 18 18 18 18 17 17 17 17 17 17 16 16 16 16 16 16 16 16 16 16 16 16 16 16 16 16 16 16 16 16 16 16 16 16
18 18 18 19 19 19 18 18 18 18 18 18 18 18 18 18 18 18 18 17 17 17 17 17 17 16 16 16 16 16 16 16 16 16 16 16 16 16 15 16 16 16 16 16 16 16 16 16 16
19 18 18 18 19 19 19 18 17 18 18 18 18 18 18 18 18 18 18 18 17 17 17 17 17 16 16 16 16 16 16 16 16 16 16 16 15 15 15 15 15 15 15 16 16 16 16 16 16
18 17 17 18 18 19 19 17 17 18 18 18 18 18 18 18 18 18 18 18 17 17 17 17 17 16 16 16 16 16 16 16 16 16 16 15 15 15 15 15 15 15 15 15 15 16 16 16 15
17 17 17 18 18 18 18 17 17 18 18 17 18 18 18 18 18 18 18 18 18 17 17 17 17 16 16 16 16 16 16 16 16 15 15 15 15 15 15 15 15 15 15 15 15 15 15 15 15
17 17 17 18 18 18 17 17 17 17 18 17 18 18 18 18 18 18 18 18 18 17 17 17 17 16 16 16 16 16 16 16 15 15 15 15 15 15 15 15 15 15 15 15 15 15 15 15 15
18 17 17 18 18 18 17 17 17 17 17 17 17 18 18 18 18 18 18 18 18 17 17 17 17 16 16 16 16 16 16 15 15 15 15 15 15 15 15 15 15 15 15 15 15 15 15 15 15
18 17 17 18 18 18 17 17 17 17 17 17 17 18 18 18 18 18 18 18 18 17 17 17 17 16 16 16 16 16 16 15 15 15 15 15 15 15 15 15 15 15 15 15 15 15 15 15 15
18 17 17 18 18 18 18 17 17 17 17 18 18 18 18 18 18 18 18 18 18 18 17 17 17 16 16 16 16 16 16 16 15 15 15 15 15 15 15 14 15 15 15 15 15 15 15 15 15
18 18 18 18 17 16 17 16 17 16 16 17 17 18 18 18 19 19 18 18 18 18 17 17 17 17 16 16 16 16 16 16 15 15 15 15 15 14 14 14 14 14 15 15 15 15 15 15 15
18 18 18 17 17 16 16 16 16 16 16 16 17 18 19 19 19 19 19 18 18 18 17 17 17 17 16 16 16 16 16 16 15 15 15 15 15 14 14 14 14 14 14 14 14 14 14 14 14
18 17 16 15 15 16 16 16 16 15 16 17 17 18 19 19 19 19 19 18 18 18 17 17 17 17 17 16 16 16 16 16 15 15 15 15 15 14 14 14 14 14 14 14 14 14 14 14 14
17 16 16 16 15 15 16 16 16 17 17 18 18 19 19 19 19 19 19 19 18 18 18 17 17 17 17 16 16 16 16 16 16 15 15 15 15 14 14 14 14 14 14 14 14 14 14 14 14
17 17 16 16 16 15 16 16 17 18 18 19 19 20 19 19 19 19 19 19 18 18 18 17 17 17 17 17 16 16 16 16 16 15 15 15 15 14 14 14 14 14 14 14 14 14 14 14 14
17 16 16 15 16 16 16 16 17 18 17 18 18 19 19 19 19 19 19 19 19 18 18 18 17 17 17 17 16 16 16 16 16 16 15 15 15 14 14 14 14 14 14 14 14 14 14 14 13
17 15 14 15 16 16 17 17 17 18 18 17 17 18 19 19 19 19 19 19 19 19 18 18 17 17 17 17 17 16 16 16 16 16 15 15 15 15 14 14 14 14 14 14 14 14 14 13 13
17 16 15 14 15 16 16 17 18 18 18 17 17 18 19 19 20 20 20 19 19 18 18 18 17 17 17 17 17 16 16 16 16 16 15 15 15 15 14 14 14 14 14 14 14 14 13 13 13
18 17 15 16 15 15 15 16 19 18 18 18 18 19 20 20 20 20 20 19 19 18 18 18 18 17 17 17 16 16 16 16 16 16 15 15 15 15 14 14 14 14 14 14 14 13 13 13 13
Wind_Speed
4 4 3 4 5 6 3 2 1 2 3 3 4 6 6 5 3 4 0 3 5 4 6 10 12 12 13 13 13 14 14 14 14 13 13 12 12 12 11 11 11 11 11 11 11 11 11 11 11
2 2 4 5 5 4 2 2 2 2 4 4 5 6 6 5 4 4 2 4 5 5 6 10 12 12 13 13 13 14 13 13 13 12 12 12 12 12 11 11 11 11 10 10 10 10 10 11 11
2 4 4 5 4 4 2 1 4 5 5 3 4 5 4 3 3 2 3 6 6 6 7 9 11 11 12 12 13 13 12 12 11 11 11 11 11 11 11 11 10 10 10 10 10 9 10 10 10
4 5 5 6 5 1 2 3 4 5 5 5 4 5 4 3 1 3 6 8 7 5 7 9 11 11 11 12 12 12 11 11 10 10 10 10 10 10 10 10 10 10 9 9 9 9 9 9 10
4 5 6 5 3 3 2 1 2 4 3 4 5 5 4 5 6 7 7 7 7 5 6 8 10 10 10 11 11 10 10 10 10 9 9 9 9 9 9 10 10 10 10 9 9 9 9 9 9
5 5 5 3 3 3 3 3 4 7 6 5 5 5 3 3 5 5 6 6 5 5 5 7 9 9 10 10 9 9 9 8 8 8 8 8 8 9 9 9 9 10 9 9 9 9 9 9 9
5 5 4 4 3 3 2 3 4 5 6 4 3 5 3 2 2 4 6 5 4 5 5 6 6 7 8 8 8 8 8 7 7 7 8 8 8 9 9 9 9 10 9 9 9 9 8 8 9
5 5 4 3 4 2 1 2 3 4 5 3 3 5 4 3 5 7 7 6 4 4 4 4 6 6 6 6 6 7 7 8 7 7 7 8 9 10 10 10 10 10 10 10 9 9 8 8 8
4 5 3 2 4 3 2 3 3 3 5 4 4 4 5 9 8 8 6 5 3 3 3 3 4 5 5 5 6 7 8 8 8 8 8 9 10 10 10 10 11 11 11 11 10 9 9 8 8
5 4 2 2 4 5 3 4 3 4 5 5 6 7 8 9 8 7 6 4 3 2 2 2 3 3 5 5 7 8 8 8 9 9 9 8 9 9 9 11 12 12 12 11 11 11 10 9 8
4 4 1 1 3 5 5 4 3 6 3 4 9 10 9 8 7 7 5 4 3 3 2 2 2 3 4 4 5 6 7 7 8 9 8 8 9 9 10 10 11 12 11 11 11 11 10 9 7
4 3 2 2 4 5 4 4 4 3 1 4 9 11 9 8 7 6 5 3 2 3 2 2 3 3 4 5 4 5 5 6 6 7 7 7 6 6 7 8 9 9 9 9 9 8 8 8 8
4 3 4 5 7 6 8 6 5 4 4 8 9 9 8 8 5 4 4 3 3 4 3 3 4 4 3 3 3 4 4 5 5 7 7 7 5 4 5 6 7 8 8 7 7 7 7 6 7
4 5 5 6 7 4 7 5 5 3 6 9 8 7 6 6 5 4 4 3 3 4 4 3 4 3 4 3 3 4 5 6 6 7 7 7 6 5 4 4 6 7 7 7 6 6 5 4 5
6 7 7 5 4 2 6 6 3 2 7 8 6 5 4 4 4 5 4 4 5 4 4 4 4 4 5 4 4 5 6 6 6 7 7 8 7 6 5 4 4 6 7 7 7 6 6 5 5
5 5 4 3 3 2 5 3 1 3 8 7 5 4 4 3 3 4 4 4 5 5 5 4 5 5 5 4 5 5 6 7 6 7 8 8 7 7 7 4 4 6 7 6 4 4 4 5 5
5 4 2 2 2 2 4 3 2 3 6 6 4 3 3 3 2 3 4 4 5 5 6 5 5 6 5 5 6 6 7 7 6 7 7 8 8 8 7 5 5 6 6 5 4 4 3 4 4
3 3 2 1 0 3 4 2 2 4 6 6 5 3 3 4 4 3 4 4 5 5 6 6 5 6 5 5 4 4 5 5 7 7 7 7 7 7 7 6 6 6 4 5 4 4 4 3 3
5 4 2 1 1 4 4 2 3 4 5 6 5 5 5 5 3 3 4 5 5 5 6 5 6 5 4 3 3 3 2 2 3 5 7 7 7 7 7 5 5 5 4 4 4 3 5 5 4
5 4 2 2 2 3 3 1 2 4 6 7 8 8 8 5 4 4 5 4 5 5 5 5 5 5 4 3 3 2 2 2 2 3 6 8 7 6 6 5 4 4 4 6 5 4 3 4 5
2 4 4 3 3 4 3 2 3 4 4 5 6 7 7 8 9 7 6 6 5 5 6 6 5 5 4 4 4 4 4 3 3 4 3 6 7 7 7 6 5 4 4 4 4 4 4 3 4
2 2 4 5 4 0 1 2 6 5 5 7 8 8 8 8 8 8 7 7 7 6 5 5 5 5 5 5 5 5 3 2 1 1 2 4 7 7 6 6 6 5 4 4 4 4 3 3 3
3 4 5 4 4 2 1 1 7 2 6 9 10 10 10 9 10 10 9 8 6 6 6 5 5 5 4 5 5 5 4 2 1 2 3 4 5 7 7 6 6 5 4 4 5 5 4 3 2
5 7 6 5 4 1 3 4 6 5 9 8 10 11 11 10 9 9 7 6 5 5 5 6 6 4 4 5 5 6 5 4 3 2 2 3 3 4 6 6 6 5 4 4 4 4 5 4 4
5 6 3 3 2 5 3 3 8 8 8 10 12 13 12 11 10 9 9 8 7 7 7 6 6 5 4 5 5 5 5 5 4 3 2 1 1 2 3 4 4 4 4 5 5 5 5 4 4
4 7 6 4 4 4 1 5 7 6 5 7 8 10 11 11 11 11 11 10 9 9 8 7 7 6 5 5 4 4 4 3 2 2 2 2 1 0 1 3 4 5 5 5 5 4 4 4 4
6 3 5 5 1 1 4 6 7 2 1 4 7 9 11 12 12 11 10 10 10 10 9 9 8 6 6 5 5 4 4 4 3 3 2 2 1 1 2 3 4 4 5 5 5 4 4 4 4
5 8 5 4 3 2 5 4 4 5 4 5 8 10 11 11 11 10 10 10 9 9 8 7 8 7 6 5 5 4 4 4 4 4 3 2 1 2 3 3 3 4 4 5 4 4 3 5 4
4 4 5 4 4 4 2 6 6 7 6 8 10 11 11 12 12 11 10 9 8 8 8 7 7 6 6 6 5 5 4 4 4 3 3 2 2 2 3 3 3 3 4 3 4 4 4 5 4
5 7 7 5 3 4 3 7 6 6 6 7 8 9 10 11 11 10 10 9 8 9 8 8 7 7 6 6 6 6 5 4 4 3 3 3 3 2 3 3 3 3 3 3 3 3 4 4 4
Wind_Direction
7 62 77 60 57 56 56 360 4 60 62 53 60 74 85 72 87 122 161 105 108 99 101 108 106 102 101 100 99 97 94 93 92 89 86 84 82 79 77 75 73 68 64 61 58 56 54 52 49
57 79 58 60 79 75 25 357 69 89 130 121 60 60 69 65 66 101 112 118 111 106 101 108 106 102 101 100 99 97 96 93 91 90 86 81 78 76 72 70 68 63 60 57 55 52 49 47 47
59 56 74 66 83 125 131 84 105 90 93 77 68 52 63 68 80 117 142 124 105 97 100 110 107 103 101 99 98 96 93 91 90 89 84 78 75 71 68 66 63 60 57 55 52 49 45 43 44
74 45 54 67 75 61 138 131 128 109 64 52 87 67 53 33 85 121 123 118 108 95 102 112 109 105 100 98 96 93 91 88 86 84 78 75 71 67 63 60 58 56 55 52 48 47 43 40 43
61 73 63 60 48 16 32 78 98 96 77 63 81 82 44 13 79 103 113 116 114 102 100 110 109 107 104 100 97 94 90 85 81 76 72 67 63 60 55 52 50 48 48 48 45 46 44 43 45
55 65 80 82 47 22 13 32 87 84 85 76 76 82 47 46 91 113 117 113 112 106 93 98 104 104 100 97 94 92 85 79 75 70 66 59 54 50 45 42 41 41 40 40 40 43 44 44 46
95 84 99 110 91 54 65 52 80 96 87 74 89 85 67 67 95 116 112 105 92 83 80 73 76 83 88 89 86 80 73 70 68 63 57 49 45 41 37 34 32 33 34 36 39 42 44 47 49
110 94 84 93 115 106 74 72 68 86 98 99 92 116 145 162 114 99 93 86 83 76 76 71 65 63 60 58 73 73 69 63 58 51 46 40 35 30 28 26 25 30 34 37 41 44 47 51 52
82 75 99 155 149 143 106 93 61 60 88 67 69 103 131 127 112 102 88 73 73 79 66 64 61 57 53 48 60 64 60 55 49 42 40 37 32 27 23 24 28 31 34 37 42 48 51 55 53
71 98 150 187 163 138 112 100 112 83 71 75 79 84 108 116 118 117 121 125 129 122 85 66 58 50 51 54 58 54 53 52 49 45 43 39 35 32 31 30 31 31 33 38 43 48 50 55 52
82 121 132 73 123 122 112 90 77 104 94 144 139 136 131 125 129 133 141 146 159 156 138 101 99 72 62 60 58 51 53 53 49 47 49 49 44 40 38 34 29 30 33 38 40 46 44 50 55
85 67 102 89 97 104 108 100 80 78 147 139 142 142 138 136 145 153 155 154 143 137 143 122 106 89 74 70 63 57 58 54 46 43 48 57 49 42 37 37 31 33 34 37 40 45 45 48 50
73 71 68 75 78 91 87 79 95 62 81 106 117 126 138 143 145 145 145 149 145 140 140 124 115 104 92 77 66 65 59 55 52 50 51 64 63 49 45 41 37 34 36 37 37 42 44 42 40
97 86 69 60 70 69 93 72 74 73 108 110 119 132 148 154 150 136 141 150 147 140 136 122 110 110 104 89 78 69 66 64 59 52 54 67 71 66 56 46 38 31 33 41 45 45 46 41 41
89 79 52 39 62 91 92 57 49 110 122 119 129 133 137 150 148 153 161 157 145 139 128 125 123 108 100 92 84 76 71 69 61 55 61 68 72 71 66 55 39 26 35 47 50 45 45 44 43
66 62 53 359 48 70 100 109 82 133 132 137 143 136 134 151 161 165 162 149 140 132 126 128 126 111 101 94 82 76 70 66 60 60 62 65 69 72 68 57 37 29 42 44 46 41 44 39 41
52 92 95 352 27 68 110 154 176 161 144 148 153 150 146 153 166 177 163 149 141 138 133 122 115 113 107 93 79 71 65 59 57 60 60 61 65 67 69 59 39 39 48 38 40 43 49 44 36
147 132 135 193 276 102 112 152 161 166 158 159 164 167 163 179 199 182 155 140 130 127 125 121 111 108 104 89 77 61 53 45 49 50 53 59 62 64 67 59 42 43 47 37 38 49 45 46 31
132 123 129 208 175 118 134 168 201 173 166 174 182 182 188 203 203 160 143 133 125 124 124 126 121 122 117 100 94 83 62 32 31 37 46 53 56 58 63 56 43 41 49 42 40 51 48 33 13
121 119 119 53 83 117 135 214 225 193 196 195 193 194 195 189 173 164 151 150 148 148 143 136 135 138 134 122 120 116 109 71 41 28 38 41 46 49 59 59 50 42 48 41 36 44 55 33 26
118 156 167 150 71 64 101 329 247 227 202 203 202 197 196 191 186 180 171 171 160 160 163 158 150 141 130 121 105 82 61 46 32 22 18 18 36 46 55 57 58 48 51 46 36 42 66 59 31
182 193 145 130 110 25 115 253 265 225 214 212 210 203 203 198 185 183 179 175 176 174 161 148 145 137 134 132 125 120 114 102 47 10 14 19 36 42 49 54 58 53 48 45 34 46 54 78 53
162 96 99 106 112 60 40 177 282 213 223 226 216 209 206 198 187 186 186 181 175 165 158 149 140 133 139 142 137 125 113 110 83 56 51 35 27 35 43 50 55 52 46 43 43 45 49 58 72
115 78 63 54 68 328 231 184 275 224 217 217 210 207 202 194 189 186 181 167 163 157 152 147 147 147 148 145 139 135 132 128 112 85 65 36 21 20 33 47 52 53 49 44 47 51 54 55 64
90 93 51 12 3 259 237 203 252 245 223 208 202 200 196 187 182 180 176 175 173 168 166 158 158 161 158 147 145 146 146 147 149 148 128 95 35 17 10 36 46 49 50 52 58 57 50 48 58
154 136 154 188 221 275 256 239 258 266 246 211 195 184 182 183 184 186 185 181 178 176 174 168 170 171 165 157 156 153 154 155 159 157 150 148 146 72 22 48 57 56 57 60 60 56 47 49 51
133 154 157 133 159 281 279 283 301 304 326 179 174 170 183 187 188 190 185 182 180 179 180 177 175 172 170 167 155 156 160 157 155 147 131 131 128 113 73 71 68 62 64 65 66 58 44 47 45
138 141 109 124 148 269 297 284 264 268 235 187 181 187 192 188 189 189 185 184 183 181 177 174 173 173 169 165 165 159 159 152 142 132 133 133 112 95 91 79 77 69 64 64 66 58 45 55 40
122 117 115 119 152 160 276 281 237 233 219 200 201 195 191 189 190 189 187 182 176 169 168 168 167 163 161 161 155 144 146 139 133 134 142 142 122 115 106 102 92 78 64 60 66 58 53 56 41
164 165 150 156 200 180 188 269 272 244 224 202 203 199 192 191 189 184 178 169 168 171 171 169 168 168 167 158 149 148 142 136 136 140 143 140 133 125 120 112 102 92 78 68 73 66 56 60 50
Height
1503 1503 1503 1504 1508 1520 1524 1521 1517 1517 1518 1519 1518 1518 1521 1524 1528 1534 1532 1530 1531 1532 1533 1534 1535 1535 1536 1536 1537 1537 1537 1538 1538 1538 1539 1539 1539 1539 1538 1538 1538 1538 1538 1537 1537 1537 1537 1536 1536
1503 1503 1505 1505 1516 1530 1528 1520 1519 1518 1518 1519 1519 1521 1522 1525 1527 1529 1530 1531 1533 1534 1535 1536 1537 1537 1538 1538 1539 1539 1539 1540 1540 1540 1540 1540 1540 1540 1540 1539 1539 1539 1539 1539 1538 1538 1538 1537 1537
1504 1504 1506 1509 1521 1529 1526 1520 1519 1519 1520 1520 1522 1524 1525 1528 1529 1530 1531 1532 1534 1536 1537 1538 1538 1539 1540 1540 1541 1541 1541 1542 1542 1542 1542 1542 1542 1541 1541 1541 1540 1540 1540 1540 1539 1539 1539 1539 1538
1505 1506 1508 1516 1523 1522 1520 1520 1519 1520 1521 1522 1524 1527 1529 1530 1531 1532 1532 1534 1536 1537 1538 1540 1541 1541 1542 1542 1543 1543 1543 1543 1543 1543 1544 1544 1543 1543 1543 1542 1542 1542 1541 1541 1541 1540 1540 1540 1540
1505 1507 1515 1524 1524 1522 1520 1520 1520 1521 1522 1524 1525 1528 1531 1533 1533 1534 1534 1536 1538 1540 1541 1542 1543 1543 1544 1544 1545 1545 1545 1546 1546 1546 1546 1545 1545 1545 1544 1544 1544 1543 1543 1542 1542 1542 1541 1541 1541
1507 1509 1524 1530 1526 1523 1522 1521 1522 1522 1525 1526 1528 1530 1534 1535 1535 1536 1537 1539 1541 1542 1543 1544 1545 1546 1546 1547 1547 1547 1548 1548 1548 1548 1548 1547 1547 1546 1546 1546 1545 1545 1544 1544 1543 1543 1543 1543 1542
1508 1515 1525 1528 1528 1525 1524 1523 1524 1525 1526 1528 1530 1532 1535 1537 1537 1538 1540 1541 1543 1544 1545 1546 1547 1548 1548 1549 1549 1550 1550 1550 1550 1550 1550 1549 1549 1548 1548 1547 1547 1546 1546 1545 1545 1545 1544 1544 1544
1509 1516 1525 1528 1528 1527 1525 1525 1526 1527 1529 1531 1532 1533 1536 1538 1539 1540 1541 1543 1545 1546 1548 1549 1549 1550 1550 1551 1551 1552 1552 1552 1552 1552 1551 1551 1550 1550 1549 1549 1548 1548 1548 1547 1547 1546 1546 1546 1546
1510 1521 1529 1527 1527 1526 1525 1526 1528 1529 1530 1531 1533 1535 1537 1539 1541 1542 1543 1545 1547 1548 1550 1550 1551 1552 1552 1553 1553 1553 1553 1553 1553 1553 1553 1553 1552 1552 1551 1551 1550 1550 1549 1549 1548 1548 1547 1547 1547
1512 1525 1525 1523 1523 1524 1526 1527 1529 1530 1531 1533 1535 1537 1539 1541 1542 1544 1545 1547 1548 1550 1551 1552 1553 1553 1554 1554 1555 1555 1555 1555 1555 1555 1554 1554 1554 1553 1553 1552 1552 1551 1551 1550 1550 1549 1549 1549 1548
1515 1521 1521 1522 1522 1524 1526 1528 1530 1531 1534 1534 1535 1538 1541 1543 1544 1545 1547 1549 1550 1551 1553 1554 1555 1555 1556 1556 1557 1557 1557 1557 1556 1556 1556 1556 1555 1555 1554 1554 1553 1553 1552 1552 1551 1551 1550 1550 1550
1518 1520 1521 1523 1523 1525 1527 1529 1532 1533 1535 1536 1537 1539 1542 1544 1546 1547 1549 1550 1552 1553 1554 1555 1556 1557 1557 1558 1558 1559 1558 1558 1558 1558 1557 1557 1556 1556 1555 1555 1554 1554 1553 1553 1552 1552 1551 1551 1551
1520 1522 1523 1524 1525 1527 1529 1531 1533 1535 1536 1537 1540 1542 1544 1546 1548 1550 1551 1552 1553 1554 1555 1557 1558 1558 1559 1559 1560 1560 1560 1560 1559 1559 1559 1558 1558 1557 1556 1556 1555 1555 1554 1554 1553 1553 1552 1552 1552
1523 1524 1525 1527 1527 1530 1531 1534 1535 1538 1539 1540 1542 1544 1546 1547 1549 1551 1552 1553 1554 1555 1557 1558 1559 1560 1560 1561 1561 1561 1561 1561 1561 1560 1560 1559 1559 1558 1557 1557 1556 1555 1555 1554 1554 1553 1553 1553 1552
1523 1526 1529 1530 1530 1532 1533 1538 1539 1540 1540 1542 1544 1545 1547 1549 1551 1552 1553 1554 1555 1557 1558 1559 1560 1561 1562 1562 1563 1563 1563 1562 1562 1561 1561 1560 1559 1559 1558 1557 1557 1556 1556 1555 1555 1554 1554 1553 1553
1527 1533 1538 1534 1533 1534 1538 1546 1541 1541 1542 1543 1545 1547 1548 1550 1552 1553 1555 1556 1557 1558 1559 1560 1561 1562 1563 1564 1564 1564 1564 1564 1563 1562 1562 1561 1560 1560 1559 1558 1558 1557 1556 1556 1555 1555 1554 1554 1554
1535 1541 1542 1538 1534 1535 1538 1544 1541 1542 1542 1544 1545 1547 1549 1551 1553 1554 1556 1557 1558 1559 1560 1561 1562 1563 1564 1565 1565 1565 1565 1565 1564 1564 1563 1562 1561 1561 1560 1559 1558 1558 1557 1557 1556 1555 1555 1555 1554
1541 1542 1542 1541 1537 1537 1540 1542 1542 1542 1543 1544 1546 1548 1549 1551 1553 1555 1556 1558 1559 1560 1561 1562 1563 1564 1565 1566 1566 1566 1566 1566 1566 1565 1564 1564 1563 1562 1561 1560 1560 1559 1558 1557 1557 1556 1556 1556 1555
1533 1539 1542 1540 1536 1538 1542 1543 1542 1542 1544 1545 1546 1547 1549 1551 1553 1555 1557 1558 1560 1561 1562 1563 1564 1565 1566 1567 1567 1567 1567 1567 1567 1566 1566 1565 1564 1563 1563 1562 1561 1560 1559 1559 1558 1558 1557 1557 1556
1534 1540 1542 1539 1536 1539 1543 1544 1542 1542 1542 1543 1545 1547 1548 1550 1553 1554 1556 1558 1560 1561 1562 1563 1564 1566 1567 1567 1568 1568 1568 1568 1568 1567 1567 1566 1566 1565 1564 1563 1562 1562 1561 1560 1559 1559 1558 1558 1557
1535 1539 1540 1541 1539 1540 1543 1547 1543 1541 1542 1543 1544 1545 1547 1549 1551 1553 1556 1558 1559 1561 1562 1564 1565 1566 1567 1568 1568 1569 1569 1569 1569 1569 1568 1568 1567 1567 1566 1565 1564 1563 1563 1562 1561 1560 1560 1559 1559
1538 1533 1535 1539 1545 1551 1547 1559 1545 1541 1541 1540 1541 1543 1545 1548 1550 1552 1554 1557 1559 1561 1562 1564 1565 1567 1568 1569 1569 1570 1570 1570 1570 1570 1570 1569 1569 1568 1567 1566 1566 1565 1564 1563 1562 1562 1561 1561 1560
1533 1532 1536 1540 1546 1553 1551 1557 1550 1541 1541 1538 1537 1539 1542 1545 1548 1551 1553 1556 1558 1560 1562 1564 1565 1567 1568 1569 1570 1570 1571 1571 1571 1571 1571 1570 1570 1569 1569 1568 1567 1566 1565 1565 1564 1563 1562 1562 1561
1531 1536 1541 1546 1552 1561 1553 1557 1552 1542 1535 1532 1533 1535 1539 1542 1546 1549 1552 1555 1557 1560 1562 1564 1565 1567 1568 1569 1570 1571 1572 1572 1572 1572 1572 1571 1571 1570 1570 1569 1569 1568 1567 1566 1565 1564 1564 1563 1562
1533 1546 1559 1562 1566 1563 1550 1552 1546 1528 1525 1525 1527 1531 1535 1539 1543 1547 1550 1553 1556 1558 1561 1563 1565 1566 1568 1569 1571 1572 1573 1573 1573 1573 1573 1572 1572 1572 1571 1570 1570 1569 1568 1567 1567 1566 1565 1564 1563
1535 1542 1559 1567 1568 1562 1551 1551 1536 1522 1520 1521 1523 1527 1532 1536 1540 1544 1547 1551 1554 1557 1560 1562 1564 1566 1568 1569 1571 1572 1572 1573 1574 1573 1573 1573 1573 1573 1572 1572 1571 1570 1569 1569 1568 1567 1566 1565 1564
1536 1542 1542 1554 1557 1561 1554 1543 1529 1520 1519 1520 1522 1525 1529 1533 1537 1541 1545 1549 1552 1555 1558 1561 1563 1565 1567 1569 1570 1572 1573 1573 1574 1574 1574 1574 1574 1574 1573 1573 1572 1571 1570 1569 1569 1568 1567 1566 1565
1530 1536 1547 1554 1562 1564 1554 1546 1539 1524 1521 1520 1521 1523 1526 1530 1535 1539 1543 1547 1550 1553 1557 1560 1562 1564 1567 1568 1570 1571 1572 1573 1574 1574 1574 1574 1574 1574 1574 1573 1573 1572 1571 1570 1569 1568 1567 1567 1566
1534 1538 1543 1551 1554 1562 1561 1549 1522 1519 1517 1517 1518 1520 1523 1527 1531 1536 1540 1544 1548 1552 1555 1558 1561 1563 1566 1567 1569 1570 1572 1573 1574 1574 1574 1574 1574 1574 1574 1574 1573 1572 1572 1571 1570 1569 1568 1567 1566
1525 1531 1539 1549 1553 1555 1556 1546 1514 1514 1513 1514 1516 1518 1521 1525 1529 1533 1538 1542 1546 1549 1553 1556 1559 1562 1564 1566 1568 1570 1571 1572 1573 1574 1574 1574 1575 1574 1574 1574 1573 1573 1572 1571 1570 1569 1568 1567 1566